User: anonymous
Location: Clinton NY
(43.0598°N, 75.3602°W)
Time: 23:37:52
(UTC-04:00)
Language:

ISS - Orbit

View from above orbital plane
View from above orbital plane
View from above satellite
View from above satellite

Ground track
Ground track

The orbit data is extracted from the following two-line orbital elements,

1 25544U 98067A   14205.74944681 -.00015421  00000-0 -25860-3 0  7655
2 25544 051.6493 273.4055 0006097 284.3403 172.6474 15.50420758897150
Epoch (UTC): 24 July 2014 17:59:12
Eccentricity: 0.0006097
inclination: 51.6493°
perigee height: 411 km
apogee height: 419 km
right ascension of ascending node: 273.4055°
argument of perigee: 284.3403°
revolutions per day: 15.50420758
mean anomaly at epoch: 172.6474°
orbit number at epoch: 89715

The dashed part of the orbit path shows where the satellite is in the earth's shadow,  

DLR